Flight Track Log - Related Links

Times and Time Zones

All times are in EST time to prevent confusion due to time zone crossing. See the EJA941 flight status page for this flight to view local times or setup timezone preferences in your user account.

Time Position Orientation Groundspeed Altitude Reporting Facility
EST Latitude Longitude Course Direction KTS MPH feet Rate Location/Type
Wed 03:08:11 PM 36.1333 -86.6500 50° Northeast 177 204 1,200  Level Nashville TRACON
Wed 03:09:11 PM 36.1667 -86.6000 50° Northeast 235 270 4,000 2,500 Climbing Nashville TRACON
Wed 03:10:11 PM 36.1833 -86.5167 76° East 276 318 6,200 2,683 Climbing Nashville TRACON
Wed 03:11:14 PM 36.1833 -86.4194 90° East 275 316 9,500 2,544 Climbing Memphis Center
Wed 03:12:16 PM 36.1903 -86.3075 86° East 325 374 11,500 2,226 Climbing Memphis Center
Wed 03:13:18 PM 36.2264 -86.1867 70° East 364 419 14,100 2,419 Climbing Memphis Center
Wed 03:14:20 PM 36.2681 -86.0631 67° East 381 438 16,500 2,032 Climbing Memphis Center
Wed 03:15:22 PM 36.3117 -85.9328 67° East 397 457 18,300 2,000 Climbing Memphis Center
Wed 03:16:23 PM 36.3639 -85.7739 68° East 422 486 20,600 2,244 Climbing Indianapolis Center
Wed 03:17:25 PM 36.4111 -85.6283 68° East 443 510 22,900 2,226 Climbing Indianapolis Center
Wed 03:18:27 PM 36.4633 -85.4747 67° East 468 539 25,200 2,065 Climbing Indianapolis Center
Wed 03:20:31 PM 36.5631 -85.1489 69° East 505 581 29,300 1,694 Climbing Indianapolis Center
Wed 03:22:35 PM 36.6289 -84.7919 77° East 531 611 32,200 1,355 Climbing Indianapolis Center
Wed 03:23:37 PM 36.6728 -84.5714 76° East 544 626 33,500 1,258 Climbing Indianapolis Center
Wed 03:24:39 PM 36.7083 -84.3939 76° East 549 632 34,800 726 Climbing Indianapolis Center
Wed 03:25:41 PM 36.7517 -84.2061 74° East 562 647 35,000 97 Climbing Indianapolis Center
Wed 03:26:43 PM 36.8181 -84.0206 66° East 583 671 35,000  Level Indianapolis Center
Wed 03:27:45 PM 36.8942 -83.8014 66° East 594 684 35,000  Level Indianapolis Center
Wed 03:28:46 PM 36.9606 -83.6133 66° East 588 677 35,000  Level Indianapolis Center
Wed 03:29:48 PM 37.0256 -83.4228 67° East 593 682 35,000  Level Indianapolis Center
Wed 03:30:50 PM 37.0944 -83.2356 65° Northeast 591 680 35,000  Level Indianapolis Center
Wed 03:31:52 PM 37.1931 -83.0647 54° Northeast 602 693 35,000  Level Indianapolis Center
Wed 03:32:54 PM 37.2967 -82.8961 52° Northeast 612 704 35,000  Level Indianapolis Center
Wed 03:33:56 PM 37.3997 -82.7267 53° Northeast 607 699 35,000  Level Indianapolis Center
Wed 03:34:58 PM 37.5003 -82.5586 53° Northeast 602 693 35,000  Level Indianapolis Center
Wed 03:36:00 PM 37.6167 -82.3619 53° Northeast 601 692 35,000  Level Indianapolis Center
Wed 03:37:02 PM 37.7172 -82.1925 53° Northeast 601 692 35,000  Level Indianapolis Center
Wed 03:38:04 PM 37.8175 -82.0244 53° Northeast 599 689 35,000  Level Indianapolis Center
Wed 03:39:06 PM 37.9169 -81.8586 53° Northeast 604 695 35,000  Level Indianapolis Center
Wed 03:40:08 PM 38.0150 -81.6861 54° Northeast 605 696 35,000  Level Indianapolis Center
Wed 03:41:10 PM 38.1144 -81.5139 54° Northeast 607 699 35,000  Level Indianapolis Center
Wed 03:42:12 PM 38.2339 -81.3069 54° Northeast 611 703 35,000 -194 Level Indianapolis Center
Wed 03:43:14 PM 38.3325 -81.1347 54° Northeast 608 700 34,600 -677 Descending Indianapolis Center
Wed 03:44:16 PM 38.4303 -80.9625 54° Northeast 607 699 33,600 -774 Descending Indianapolis Center
Wed 03:45:18 PM 38.5272 -80.7897 54° Northeast 604 695 33,000 -290 Descending Indianapolis Center
Wed 03:46:20 PM 38.6264 -80.6128 54° Northeast 611 703 33,000  Level Indianapolis Center
Wed 03:47:22 PM 38.7481 -80.3956 54° Northeast 624 718 33,000 -195 Level Indianapolis Center
Wed 03:48:23 PM 38.8511 -80.2125 54° Northeast 632 727 32,600 -976 Descending Indianapolis Center
Wed 03:49:25 PM 38.9361 -80.0189 61° Northeast 616 709 31,000 -1,452 Descending Indianapolis Center
Wed 03:50:27 PM 38.9928 -79.8219 70° East 606 697 29,600 -968 Descending Indianapolis Center
Wed 03:51:29 PM 39.0636 -79.6306 64° Northeast 607 699 29,000 -290 Descending Indianapolis Center
Wed 03:52:31 PM 39.1500 -79.4317 61° Northeast 614 707 29,000 -290 Level Indianapolis Center
Wed 03:53:33 PM 39.2439 -79.2131 61° Northeast 622 716 28,400 -909 Descending Indianapolis Center
Wed 03:54:43 PM 39.3361 -79.0050 60° Northeast 604 695 27,000 -1,108 Descending Washington Center
Wed 03:55:43 PM 39.4122 -78.8178 62° Northeast 591 680 26,000 -496 Descending Washington Center
Wed 03:56:44 PM 39.4919 -78.6331 61° Northeast 586 674 26,000  Level Washington Center
Wed 03:57:45 PM 39.5694 -78.4453 62° Northeast 586 674 26,000 -958 Level Washington Center
Wed 03:58:43 PM 39.6489 -78.2569 61° Northeast 586 674 24,100 -2,467 Descending Washington Center
Wed 03:59:15 PM 39.6917 -78.1547 61° Northeast 584 672 22,300 -2,409 Descending Cleveland Center
Wed 04:00:50 PM 39.8008 -77.8861 62° Northeast 533 613 19,000 -1,277 Descending New York Center
Wed 04:01:50 PM 39.8667 -77.7278 62° Northeast 508 585 19,000 -200 Level New York Center
Wed 04:02:50 PM 39.9319 -77.5717 61° Northeast 490 564 18,600 -700 Descending New York Center
Wed 04:03:50 PM 40.0125 -77.4386 52° Northeast 507 583 17,600 -800 Descending New York Center
Wed 04:04:50 PM 40.1225 -77.2997 44° Northeast 500 575 17,000 -300 Descending New York Center
Wed 04:05:50 PM 40.2119 -77.1886 43° Northeast 495 570 17,000  Level New York Center
Wed 04:06:50 PM 40.3194 -77.0542 44° Northeast 489 563 17,000  Level New York Center
Wed 04:07:50 PM 40.4089 -76.9397 44° Northeast 489 563 17,000 -50 Level New York Center
Wed 04:08:50 PM 40.5181 -76.7992 44° Northeast 489 563 16,900 -800 Descending New York Center
Wed 04:09:50 PM 40.6161 -76.6739 44° Northeast 489 563 15,400 -1,450 Descending New York Center
Wed 04:10:50 PM 40.7056 -76.5528 46° Northeast 476 548 14,000 -1,450 Descending New York Center
Wed 04:11:50 PM 40.7808 -76.4606 43° Northeast 433 498 12,500 -1,450 Descending New York Center
Wed 04:12:50 PM 40.8542 -76.3650 45° Northeast 388 447 11,100 -1,400 Descending New York Center
Wed 04:13:50 PM 40.9297 -76.2669 44° Northeast 345 397 9,700 -1,350 Descending New York Center
Wed 04:14:50 PM 40.9978 -76.1900 40° Northeast 328 377 8,400 -1,300 Descending New York Center
Wed 04:15:50 PM 41.0667 -76.1431 27° Northeast 308 354 7,100 -1,300 Descending New York Center
Wed 04:16:50 PM 41.1397 -76.0939 27° Northeast 297 342 5,800 -1,300 Descending New York Center
Wed 04:17:50 PM 41.2153 -76.0336 31° Northeast 286 329 4,500 -850 Descending New York Center
Wed 04:18:50 PM 41.2719 -75.9744 38° Northeast 270 311 4,100 -250 Descending New York Center
Wed 04:19:50 PM 41.3225 -75.9175 40° Northeast 264 304 4,000 -50 Descending New York Center
Wed 04:20:50 PM 41.3792 -75.8556 39° Northeast 259 298 4,000  Level New York Center
Wed 04:21:50 PM 41.4425 -75.7883 38° Northeast 266 306 4,000  Level New York Center
Wed 04:22:50 PM 41.4969 -75.7289 39° Northeast 260 299 4,000 -200 Level New York Center
Wed 04:23:50 PM 41.4878 -75.6533 99° East 192 221 3,600 -550 Descending New York Center
Wed 04:24:50 PM 41.4275 -75.6489 177° South 131 151 2,900 -750 Descending New York Center
Wed 04:25:50 PM 41.3867 -75.6792 209° Southwest 131 151 2,100 -800 Descending New York Center

Login

Don't have an account? Register now (free) for customized features, flight alerts, and more!